| time (UTC) | temp C | wind direction | speed KPH | gust KPH | rain 1hr cm | rain 24hr cm | rain mn cm | humidity % | barometer mb |
| 20260507183805 | 21 | 310 | 3.2 | 17.7 | 0.00 | 0.00 | 0.00 | 56 | 1017.5 |
| 20260507182747 | 21 | 60 | 3.2 | 17.7 | 0.00 | 0.00 | 0.00 | 57 | 1017.6 |
| 20260507181734 | 20 | 290 | 4.8 | 16.1 | 0.00 | 0.00 | 0.00 | 61 | 1017.8 |
| 20260507180710 | 20 | 355 | 6.4 | 16.1 | 0.00 | 0.00 | 0.00 | 60 | 1018.0 |
| 20260507174613 | 20 | 327 | 3.2 | 14.5 | 0.00 | 0.00 | 0.00 | 58 | 1018.5 |
| 20260507173559 | 20 | 317 | 1.6 | 14.5 | 0.00 | 0.00 | 0.00 | 59 | 1018.8 |
| 20260507172535 | 20 | 341 | 3.2 | 12.9 | 0.00 | 0.00 | 0.00 | 56 | 1019.1 |
| 20260507171536 | 19 | 76 | 4.8 | 12.9 | 0.00 | 0.00 | 0.00 | 58 | 1019.3 |
| 20260507165331 | 19 | 305 | 4.8 | 16.1 | 0.00 | 0.00 | 0.00 | 62 | 1019.5 |
| 20260507164328 | 18 | 339 | 4.8 | 11.3 | 0.00 | 0.00 | 0.00 | 60 | 1019.5 |
| 20260507163332 | 18 | 5 | 3.2 | 11.3 | 0.00 | 0.00 | 0.00 | 63 | 1019.7 |
| 20260507162343 | 18 | 313 | 1.6 | 8.0 | 0.00 | 0.00 | 0.00 | 67 | 1019.8 |
| 20260507161348 | 18 | 16 | 1.6 | 9.7 | 0.00 | 0.00 | 0.00 | 68 | 1019.8 |
| 20260507155212 | 17 | 71 | 0.0 | 0.0 | 0.00 | 0.03 | 0.00 | 69 | 1019.9 |
| 20260507154155 | 17 | 17 | 1.6 | 9.7 | 0.00 | 0.03 | 0.00 | 71 | 1020.0 |
| 20260507153150 | 16 | 49 | 0.0 | 3.2 | 0.00 | 0.03 | 0.00 | 75 | 1020.2 |
| 20260507152159 | 16 | 36 | 0.0 | 0.0 | 0.00 | 0.03 | 0.00 | 74 | 1020.3 |
| 20260507151159 | 16 | 39 | 1.6 | 6.4 | 0.00 | 0.03 | 0.00 | 75 | 1020.3 |
| 20260507145110 | 16 | 42 | 1.6 | 6.4 | 0.00 | 0.03 | 0.00 | 78 | 1020.4 |
| 20260507144048 | 15 | 62 | 0.0 | 4.8 | 0.00 | 0.03 | 0.00 | 80 | 1020.6 |
| 20260507143055 | 15 | 24 | 1.6 | 6.4 | 0.00 | 0.03 | 0.00 | 83 | 1020.7 |
| 20260507142114 | 14 | 48 | 0.0 | 4.8 | 0.00 | 0.03 | 0.00 | 86 | 1020.8 |
| 20260507135953 | 13 | 5 | 0.0 | 4.8 | 0.00 | 0.03 | 0.00 | 91 | 1020.9 |
| 20260507134957 | 12 | 355 | 0.0 | 0.0 | 0.00 | 0.03 | 0.00 | 92 | 1020.9 |
| 20260507134000 | 12 | 23 | 0.0 | 3.2 | 0.00 | 0.03 | 0.00 | 92 | 1021.0 |
| 20260507133000 | 11 | 0 | 0.0 | 0.0 | 0.00 | 0.03 | 0.00 | 91 | 1021.0 |
| 20260507132018 | 11 | 342 | 0.0 | 0.0 | 0.00 | 0.03 | 0.00 | 92 | 1020.9 |
| 20260507130954 | 10 | 305 | 0.0 | 0.0 | 0.00 | 0.03 | 0.00 | 92 | 1020.9 |
| 20260507125956 | 10 | 355 | 0.0 | 0.0 | 0.00 | 0.03 | 0.00 | 92 | 1020.8 |
| 20260507124951 | 10 | 248 | 0.0 | 0.0 | 0.00 | 0.03 | 0.00 | 92 | 1020.7 |
| 20260507124013 | 10 | 109 | 0.0 | 0.0 | 0.00 | 0.03 | 0.00 | 92 | 1020.6 |
| 20260507122957 | 9 | 163 | 0.0 | 0.0 | 0.00 | 0.03 | 0.00 | 92 | 1020.6 |
| 20260507121952 | 9 | 155 | 0.0 | 0.0 | 0.00 | 0.03 | 0.00 | 92 | 1020.4 |
| 20260507115758 | 8 | 259 | 0.0 | 0.0 | 0.00 | 0.03 | 0.00 | 92 | 1020.2 |
| 20260507113538 | 8 | 257 | 0.0 | 0.0 | 0.00 | 0.03 | 0.00 | 92 | 1019.8 |
| 20260507112537 | 8 | 264 | 0.0 | 0.0 | 0.00 | 0.03 | 0.00 | 92 | 1019.6 |
| 20260507111548 | 8 | 216 | 0.0 | 0.0 | 0.00 | 0.03 | 0.00 | 92 | 1019.4 |
| 20260507110543 | 8 | 203 | 0.0 | 0.0 | 0.00 | 0.03 | 0.00 | 92 | 1019.0 |
| 20260507105551 | 9 | 202 | 0.0 | 0.0 | 0.00 | 0.03 | 0.00 | 92 | 1019.0 |
| 20260507103434 | 9 | 327 | 0.0 | 0.0 | 0.00 | 0.03 | 0.00 | 92 | 1018.7 |
| 20260507102405 | 9 | 327 | 0.0 | 0.0 | 0.00 | 0.03 | 0.00 | 92 | 1018.4 |
| 20260507101410 | 9 | 327 | 0.0 | 0.0 | 0.00 | 0.03 | 0.00 | 92 | 1018.3 |
| 20260507095238 | 9 | 326 | 0.0 | 0.0 | 0.00 | 0.03 | 0.00 | 92 | 1018.4 |
| 20260507094219 | 10 | 326 | 0.0 | 0.0 | 0.00 | 0.03 | 0.00 | 92 | 1018.4 |
| 20260507093244 | 10 | 326 | 0.0 | 0.0 | 0.00 | 0.03 | 0.00 | 92 | 1018.4 |
| 20260507092242 | 10 | 326 | 0.0 | 0.0 | 0.00 | 0.03 | 0.00 | 92 | 1018.2 |
| 20260507091226 | 10 | 326 | 0.0 | 0.0 | 0.00 | 0.03 | 0.00 | 92 | 1018.2 |
| 20260507090225 | 10 | 326 | 0.0 | 0.0 | 0.00 | 0.03 | 0.00 | 92 | 1018.3 |
| 20260507085222 | 10 | 344 | 0.0 | 0.0 | 0.00 | 0.03 | 0.00 | 92 | 1018.3 |
| 20260507084203 | 10 | 344 | 0.0 | 0.0 | 0.00 | 0.03 | 0.00 | 91 | 1018.0 |
| 20260507083200 | 10 | 344 | 0.0 | 0.0 | 0.00 | 0.03 | 0.00 | 91 | 1018.0 |
| 20260507082208 | 10 | 344 | 0.0 | 3.2 | 0.00 | 0.03 | 0.00 | 91 | 1017.8 |
| 20260507081150 | 10 | 344 | 0.0 | 0.0 | 0.00 | 0.03 | 0.00 | 91 | 1017.8 |
| 20260507080145 | 10 | 345 | 0.0 | 0.0 | 0.00 | 0.03 | 0.00 | 91 | 1017.8 |
| 20260507075155 | 10 | 336 | 0.0 | 3.2 | 0.00 | 0.03 | 0.00 | 91 | 1018.0 |
| 20260507074211 | 10 | 327 | 0.0 | 3.2 | 0.00 | 0.03 | 0.00 | 91 | 1018.1 |
| 20260507072054 | 11 | 327 | 0.0 | 0.0 | 0.00 | 0.03 | 0.00 | 90 | 1018.2 |
| 20260507065949 | 11 | 20 | 0.0 | 0.0 | 0.00 | 0.03 | 0.00 | 90 | 1018.0 |
| 20260507065011 | 11 | 22 | 0.0 | 0.0 | 0.00 | 0.03 | 0.00 | 90 | 1018.1 |
| 20260507064024 | 11 | 22 | 0.0 | 3.2 | 0.00 | 0.03 | 0.00 | 89 | 1017.9 |
| 20260507063014 | 11 | 54 | 0.0 | 0.0 | 0.00 | 0.03 | 0.00 | 88 | 1017.7 |
| 20260507062034 | 11 | 54 | 0.0 | 0.0 | 0.00 | 0.03 | 0.00 | 88 | 1017.5 |
| 20260507061055 | 11 | 55 | 0.0 | 0.0 | 0.00 | 0.03 | 0.00 | 88 | 1017.4 |
| 20260507060048 | 11 | 67 | 0.0 | 4.8 | 0.00 | 0.03 | 0.00 | 87 | 1017.4 |
| 20260507053850 | 12 | 38 | 0.0 | 1.6 | 0.00 | 0.03 | 0.00 | 87 | 1017.7 |
| 20260507052902 | 12 | 29 | 0.0 | 4.8 | 0.00 | 0.03 | 0.00 | 87 | 1017.7 |
| 20260507051830 | 12 | 42 | 0.0 | 3.2 | 0.00 | 0.03 | 0.00 | 86 | 1017.8 |
| 20260507050844 | 12 | 48 | 0.0 | 3.2 | 0.00 | 0.03 | 0.00 | 86 | 1017.7 |
| 20260507045833 | 13 | 36 | 1.6 | 6.4 | 0.00 | 0.03 | 0.03 | 85 | 1017.8 |
| 20260507044824 | 13 | 24 | 0.0 | 6.4 | 0.00 | 0.03 | 0.03 | 85 | 1017.8 |
| 20260507043844 | 13 | 34 | 1.6 | 9.7 | 0.00 | 0.03 | 0.03 | 85 | 1018.0 |
| 20260507042905 | 13 | 11 | 1.6 | 9.7 | 0.00 | 0.03 | 0.03 | 85 | 1017.9 |
| 20260507041839 | 13 | 10 | 1.6 | 8.0 | 0.00 | 0.03 | 0.03 | 85 | 1018.0 |
| 20260507034624 | 13 | 50 | 3.2 | 11.3 | 0.00 | 0.03 | 0.03 | 85 | 1018.0 |
| 20260507033633 | 13 | 355 | 3.2 | 11.3 | 0.00 | 0.03 | 0.03 | 85 | 1017.9 |
| 20260507032613 | 13 | 346 | 1.6 | 12.9 | 0.00 | 0.03 | 0.03 | 84 | 1017.9 |
| 20260507031605 | 13 | 0 | 4.8 | 12.9 | 0.00 | 0.03 | 0.03 | 84 | 1017.7 |
| 20260507030617 | 13 | 5 | 6.4 | 12.9 | 0.00 | 0.03 | 0.03 | 84 | 1017.6 |
| 20260507025613 | 13 | 339 | 4.8 | 12.9 | 0.00 | 0.03 | 0.03 | 84 | 1017.5 |
| 20260507024614 | 13 | 32 | 4.8 | 12.9 | 0.00 | 0.03 | 0.03 | 84 | 1017.3 |
| 20260507022453 | 14 | 27 | 6.4 | 14.5 | 0.00 | 0.03 | 0.03 | 84 | 1016.9 |
| 20260507021421 | 14 | 13 | 4.8 | 14.5 | 0.00 | 0.03 | 0.03 | 84 | 1016.8 |
| 20260507020347 | 14 | 16 | 6.4 | 12.9 | 0.00 | 0.03 | 0.03 | 84 | 1016.4 |
| 20260507015354 | 14 | 12 | 6.4 | 12.9 | 0.00 | 0.03 | 0.03 | 85 | 1016.1 |
| 20260507014351 | 14 | 0 | 4.8 | 12.9 | 0.00 | 0.03 | 0.03 | 85 | 1015.9 |
| 20260507013322 | 14 | 5 | 4.8 | 12.9 | 0.00 | 0.03 | 0.03 | 85 | 1015.7 |
| 20260507012252 | 14 | 41 | 4.8 | 17.7 | 0.00 | 0.03 | 0.03 | 85 | 1015.5 |
| 20260507011242 | 14 | 18 | 6.4 | 17.7 | 0.00 | 0.03 | 0.03 | 85 | 1015.4 |
| 20260507010234 | 14 | 32 | 6.4 | 14.5 | 0.00 | 0.03 | 0.03 | 84 | 1015.4 |
| 20260507005225 | 14 | 26 | 6.4 | 17.7 | 0.00 | 0.03 | 0.03 | 85 | 1015.3 |
| 20260507004205 | 14 | 11 | 6.4 | 17.7 | 0.00 | 0.03 | 0.03 | 85 | 1015.1 |
| 20260507003136 | 14 | 32 | 8.0 | 17.7 | 0.00 | 0.03 | 0.03 | 85 | 1015.0 |
| 20260507002135 | 14 | 13 | 8.0 | 17.7 | 0.00 | 0.03 | 0.03 | 85 | 1014.8 |
| 20260507001105 | 14 | 19 | 8.0 | 17.7 | 0.00 | 0.03 | 0.03 | 84 | 1014.8 |
| 20260506235031 | 14 | 355 | 9.7 | 20.9 | 0.00 | 0.03 | 0.03 | 84 | 1014.6 |
| 20260506231816 | 14 | 5 | 9.7 | 19.3 | 0.00 | 0.03 | 0.03 | 84 | 1014.5 |
| 20260506230751 | 14 | 0 | 8.0 | 19.3 | 0.00 | 0.03 | 0.03 | 84 | 1014.6 |
| 20260506225804 | 14 | 331 | 8.0 | 19.3 | 0.00 | 0.03 | 0.03 | 84 | 1014.4 |
| 20260506224825 | 14 | 329 | 8.0 | 17.7 | 0.00 | 0.03 | 0.03 | 84 | 1014.3 |
| 20260506223802 | 14 | 0 | 8.0 | 20.9 | 0.00 | 0.03 | 0.03 | 84 | 1014.5 |
| 20260506222740 | 14 | 337 | 8.0 | 20.9 | 0.00 | 0.03 | 0.03 | 84 | 1014.2 |
| 20260506221736 | 14 | 33 | 6.4 | 17.7 | 0.00 | 0.03 | 0.03 | 84 | 1013.9 |
| 20260506220717 | 14 | 343 | 6.4 | 14.5 | 0.00 | 0.03 | 0.03 | 84 | 1013.9 |
| 20260506215707 | 14 | 323 | 8.0 | 17.7 | 0.00 | 0.03 | 0.03 | 84 | 1014.0 |
| 20260506214637 | 14 | 333 | 8.0 | 19.3 | 0.00 | 0.03 | 0.03 | 84 | 1014.1 |
| 20260506213621 | 14 | 9 | 9.7 | 19.3 | 0.00 | 0.03 | 0.03 | 83 | 1014.2 |
| 20260506212644 | 14 | 355 | 8.0 | 19.3 | 0.00 | 0.03 | 0.03 | 83 | 1014.0 |
| 20260506205324 | 13 | 33 | 6.4 | 14.5 | 0.00 | 0.03 | 0.03 | 84 | 1014.2 |
| 20260506204301 | 13 | 295 | 8.0 | 16.1 | 0.00 | 0.03 | 0.03 | 84 | 1014.6 |
| 20260506203240 | 13 | 348 | 4.8 | 16.1 | 0.00 | 0.03 | 0.03 | 85 | 1014.6 |
| 20260506202244 | 13 | 331 | 4.8 | 16.1 | 0.00 | 0.03 | 0.03 | 84 | 1014.7 |
| 20260506201229 | 13 | 348 | 8.0 | 16.1 | 0.00 | 0.03 | 0.03 | 84 | 1014.5 |
| 20260506200215 | 13 | 344 | 6.4 | 14.5 | 0.00 | 0.03 | 0.03 | 84 | 1014.8 |
| 20260506195231 | 13 | 323 | 6.4 | 12.9 | 0.00 | 0.03 | 0.03 | 85 | 1014.4 |
| 20260506194228 | 13 | 5 | 6.4 | 17.7 | 0.00 | 0.03 | 0.03 | 85 | 1014.6 |
| 20260506193226 | 13 | 319 | 6.4 | 17.7 | 0.00 | 0.03 | 0.03 | 85 | 1014.5 |
| 20260506192212 | 13 | 321 | 4.8 | 14.5 | 0.00 | 0.03 | 0.03 | 85 | 1014.7 |
| 20260506191233 | 13 | 17 | 4.8 | 14.5 | 0.00 | 0.03 | 0.03 | 85 | 1014.6 |
| 20260506190209 | 13 | 16 | 8.0 | 19.3 | 0.00 | 0.03 | 0.03 | 84 | 1014.0 |
| 20260506185216 | 13 | 343 | 9.7 | 24.1 | 0.00 | 0.03 | 0.03 | 85 | 1013.7 |
| 20260506184144 | 13 | 355 | 12.9 | 27.4 | 0.00 | 0.03 | 0.03 | 86 | 1013.2 |